MYSat 1 (44045 NORAD) Tracking and Keplerian Element Data

This shows tracking and keplerian element data for the satellite.

Feedback or suggestion? Click here.




ElementValue
Catalog44045
NameMYSat 1
Epoch Orbit21188
Epoch Day321.8818383
Epoch Year2022
RAAN16.2833
Inclination51.6214
Eccentricity0.0011971
Argument of Perigee358.2443
Mean Anonmoly1.8516
Mean Motion15.84160531
Decay Rate0.00240016
L11 44045U 18092F 22321.88183830 .00240016 00000-0 10106-2 0 9999
L22 44045 51.6214 16.2833 0011971 358.2443 1.8516 15.84160531211884



Live tracking and technical data element details for MYSat 1 (NORAD 44045). MYSat 1 can be tracked NOW for your location showing map with azimuth and elevation plus other details from your city location.







IsCatalogInMostPopularTable: catalog: 44045, numindb: 456
Update: records affected: 1



GetName: 44045 MYSat 1

Hit Count: updated at: Thu, 23 Jan 2025 17:34:26 GMT